Station IOSN3 - Isle of Shoals, NH Image indicating link to RSS feed of recent meteorological observations for station IOSN3


Conditions at IOSN3 as of
(2:00 pm EDT)
1800 GMT on 05/28/2024:
     

Click on the graph icon in the table below to see a time series plot of the last five days of that observation.

5-day plot - Wind Direction Wind Direction (WDIR): S ( 180 deg true )
5-day plot - Wind Speed Wind Speed (WSPD): 13 kts
5-day plot - Wind Gust Wind Gust (GST): 14 kts
5-day plot - Atmospheric Pressure Atmospheric Pressure (PRES):29.62 in
5-day plot - Pressure Tendency Pressure Tendency (PTDY):+0.00 in ( Steady )
5-day plot - Air Temperature Air Temperature (ATMP): 67.5 °F
5-day plot - Dew Point Dew Point (DEWP): 58.1 °F
5-day plot - Wind Speed at 10 Meters Wind Speed at 10 meters (WSPD10M): 12 kts
5-day plot - Wind Speed at 20 Meters Wind Speed at 20 meters (WSPD20M): 14 kts
5-day plot -  Wind Speed, Wind Gust and Atmospheric Pressure Combined plot of Wind Speed, Gust, and Air Pressure
Continuous Winds
TIME
(EDT)
5-day plot - Wind Direction WDIR 5-day plot - Wind Speed WSPD
2:00 pmS ( 183 deg ) 12 kts
1:50 pmS ( 183 deg ) 12 kts
1:40 pmS ( 191 deg ) 14 kts
1:30 pmS ( 184 deg ) 16 kts
1:20 pmS ( 186 deg ) 17 kts
1:10 pmS ( 186 deg ) 17 kts
 
Peak gust during the measurement hour
TIME
(EDT)
5-day plot - Gust Direction GDR 5-day plot - Gust Speed GST
1:06 pmS ( 180 deg ) 19 kts
Previous observations
TIME
(EDT)
5-day plot - Wind Direction
WDIR
 
5-day plot - Wind Speed
WSPD
kts
5-day plot - Wind Gust
GST
kts
5-day plot - Wave Height
WVHT
ft
5-day plot - Dominant Wave Period
DPD
sec
5-day plot - Average Wave Period
APD
sec
5-day plot - Mean Wave Direction
MWD
 
5-day plot - Atmospheric Pressure
PRES
in
5-day plot - Pressure Tendency
PTDY
in
5-day plot - Air Temperature
ATMP
°F
5-day plot - Water Temperature
WTMP
°F
5-day plot - Dew Point
DEWP
°F
5-day plot - Salinity
SAL
psu
5-day plot - Visibility
VIS
nmi
5-day plot - Tide (above MLLW)
TIDE
ft
2024-05-28 01:00 pm S 17 18----29.61-0.01 69.3- 61.2---
2024-05-28 12:00 pmSSE 16 17----29.60-0.02 62.6- 61.0---
2024-05-28 11:00 amSSE 15 16----29.61-0.03 64.0- 64.0---
2024-05-28 10:00 amSSE 10 11----29.62-0.01 65.3- 65.1---
2024-05-28 09:00 am SW 11 11----29.62+0.00 66.6- 66.2---
2024-05-28 08:00 amWSW 10 10----29.64+0.00 65.1- 64.8---
2024-05-28 07:00 amSSW 13 13----29.63-0.01 61.5- 61.2---
2024-05-28 06:00 am S 16 17----29.63-0.03 60.4- 60.3---
2024-05-28 05:00 am S 17 18----29.64-0.03 60.1- 59.9---
2024-05-28 04:00 am S 16 17----29.65-0.05 60.3- 60.1---
2024-05-28 03:00 am S 22 24----29.66-0.07 59.7- 59.5---
2024-05-28 02:00 amSSE 28 30----29.67-0.07 59.4- 59.2---
2024-05-28 01:00 amSSE 27 28----29.70-0.07 60.1- 59.9---
2024-05-28 12:00 am S 27 29----29.73-0.04 60.1- 60.1---
2024-05-27 11:00 pmSSE 25 27----29.74-0.04 59.4- 59.4---
2024-05-27 10:00 pm SE 23 25----29.77-0.05 59.5- 59.4---
2024-05-27 09:00 pm SE 25 27----29.77-0.05 59.9- 59.5---
2024-05-27 08:00 pm SE 26 28----29.78-0.09 60.8- 60.4---
2024-05-27 07:00 pmSSE 25 27----29.82-0.07 60.8- 60.6---
2024-05-27 06:00 pm SE 24 26----29.82-0.10 59.0- 58.8---
2024-05-27 05:00 pm SE 11 12----29.87-0.09 58.5- 58.3---
2024-05-27 04:00 pm E 15 15----29.89-0.09 57.7- 57.6---
2024-05-27 03:00 pmENE 14 15----29.92-0.06 55.9- 55.8---